Location: Baia Mare
(47.6567°N, 23.5850°E)
Time: 09:05:13
(UTC+03:00)

ISS - Pass Details

Date: 29 October 2018
Orbit: 403 x 408 km, 51.6° (Epoch: 21 October)

Event Time Altitude Azimuth Distance (km) Brightness Sun altitude
Exits shadow 04:34:04 10° 143° (SE) 1,445 -0.7 -25.9°
Maximum altitude 04:34:39 11° 133° (SE) 1,424 -0.6 -25.8°
Drops below altitude 10° 04:35:22 10° 120° (ESE) 1,458 -0.4 -25.6°
Sets 04:38:57 0° 79° (E) 2,325 1.4 -25.0°
